Time,TemperatureF,DewpointF,PressureIn,WindDirection,WindDirectionDegrees,WindSpeedMPH,WindSpeedGustMPH,Humidity,HourlyPrecipIn,Conditions,Clouds,dailyrainin,SolarRadiationWatts/m^2,SoftwareType,DateUTC
2013-03-26 00:10:00,49.1,6.0,30.10,North,5,3.0,8.0,17,0.00,,,0.00,0,weatherlink.com 1.10,2013-03-26 06:10:00,
2013-03-26 00:25:00,47.9,6.0,30.11,North,5,1.0,4.0,18,0.00,,,0.00,0,weatherlink.com 1.10,2013-03-26 06:25:00,
2013-03-26 00:40:00,46.3,7.0,30.11,North,360,4.0,6.0,20,0.00,,,0.00,0,weatherlink.com 1.10,2013-03-26 06:40:00,
2013-03-26 00:55:00,45.3,6.0,30.11,North,360,0.0,1.0,20,0.00,,,0.00,0,weatherlink.com 1.10,2013-03-26 06:55:00,
2013-03-26 01:10:00,44.5,8.0,30.11,North,360,0.0,2.0,22,0.00,,,0.00,0,weatherlink.com 1.10,2013-03-26 07:10:00,
2013-03-26 01:25:00,44.0,7.0,30.11,North,360,0.0,0.0,22,0.00,,,0.00,0,weatherlink.com 1.10,2013-03-26 07:25:00,
2013-03-26 01:40:00,43.7,7.0,30.11,North,360,0.0,4.0,22,0.00,,,0.00,0,weatherlink.com 1.10,2013-03-26 07:40:00,
2013-03-26 01:55:00,43.8,7.0,30.11,North,360,0.0,1.0,22,0.00,,,0.00,0,weatherlink.com 1.10,2013-03-26 07:55:00,
2013-03-26 02:10:00,44.3,8.0,30.11,North,360,0.0,3.0,23,0.00,,,0.00,0,weatherlink.com 1.10,2013-03-26 08:10:00,
2013-03-26 02:25:00,44.2,8.0,30.11,North,360,0.0,4.0,23,0.00,,,0.00,0,weatherlink.com 1.10,2013-03-26 08:25:00,
2013-03-26 02:40:00,44.0,8.0,30.11,North,360,0.0,4.0,23,0.00,,,0.00,0,weatherlink.com 1.10,2013-03-26 08:40:00,
2013-03-26 02:55:00,46.5,9.0,30.10,East,80,11.0,13.0,22,0.00,,,0.00,0,weatherlink.com 1.10,2013-03-26 08:55:00,
2013-03-26 03:11:00,48.9,10.0,30.10,East,85,10.0,15.0,21,0.00,,,0.00,0,weatherlink.com 1.10,2013-03-26 09:11:00,
2013-03-26 03:26:00,48.8,10.0,30.10,East,89,6.0,14.0,21,0.00,,,0.00,0,weatherlink.com 1.10,2013-03-26 09:26:00,
2013-03-26 03:41:00,48.5,9.0,30.11,NNE,30,0.0,10.0,20,0.00,,,0.00,0,weatherlink.com 1.10,2013-03-26 09:41:00,
2013-03-26 03:56:00,43.9,9.0,30.11,NNW,331,4.0,13.0,24,0.00,,,0.00,0,weatherlink.com 1.10,2013-03-26 09:56:00,
2013-03-26 05:11:00,42.8,9.0,30.11,NNW,335,5.0,5.0,25,0.00,,,0.00,0,weatherlink.com 1.10,2013-03-26 11:11:00,
2013-03-26 05:41:00,41.3,9.0,30.12,NNW,329,3.0,5.0,26,0.00,,,0.00,0,weatherlink.com 1.10,2013-03-26 11:41:00,
2013-03-26 05:56:00,40.6,9.0,30.12,NW,320,3.0,6.0,27,0.00,,,0.00,0,weatherlink.com 1.10,2013-03-26 11:56:00,
2013-03-26 06:11:00,40.9,9.0,30.13,NW,320,4.0,5.0,27,0.00,,,0.00,0,weatherlink.com 1.10,2013-03-26 12:11:00,
2013-03-26 06:26:00,40.5,10.0,30.13,NW,313,0.0,8.0,28,0.00,,,0.00,0,weatherlink.com 1.10,2013-03-26 12:26:00,
2013-03-26 06:56:00,39.4,9.0,30.14,NW,312,3.0,6.0,28,0.00,,,0.00,0,weatherlink.com 1.10,2013-03-26 12:56:00,
2013-03-26 07:11:00,39.3,10.0,30.15,NW,312,3.0,5.0,30,0.00,,,0.00,7,weatherlink.com 1.10,2013-03-26 13:11:00,
2013-03-26 07:26:00,39.8,10.0,30.15,NW,312,4.0,4.0,29,0.00,,,0.00,19,weatherlink.com 1.10,2013-03-26 13:26:00,
2013-03-26 07:41:00,41.0,10.0,30.16,NW,312,2.0,6.0,28,0.00,,,0.00,63,weatherlink.com 1.10,2013-03-26 13:41:00,
2013-03-26 08:11:00,45.2,11.0,30.16,NW,318,1.0,2.0,25,0.00,,,0.00,181,weatherlink.com 1.10,2013-03-26 14:11:00,
2013-03-26 08:26:00,46.8,12.0,30.16,NW,318,3.0,4.0,24,0.00,,,0.00,236,weatherlink.com 1.10,2013-03-26 14:26:00,
2013-03-26 08:41:00,48.0,12.0,30.16,NW,318,0.0,6.0,23,0.00,,,0.00,295,weatherlink.com 1.10,2013-03-26 14:41:00,
2013-03-26 08:57:00,49.4,12.0,30.16,NW,318,0.0,5.0,22,0.00,,,0.00,320,weatherlink.com 1.10,2013-03-26 14:57:00,
2013-03-26 09:12:00,50.6,13.0,30.16,NW,318,3.0,6.0,22,0.00,,,0.00,378,weatherlink.com 1.10,2013-03-26 15:12:00,
2013-03-26 09:27:00,51.9,13.0,30.16,NW,317,1.0,7.0,21,0.00,,,0.00,387,weatherlink.com 1.10,2013-03-26 15:27:00,
2013-03-26 09:42:00,52.7,12.0,30.16,NW,317,5.0,7.0,20,0.00,,,0.00,538,weatherlink.com 1.10,2013-03-26 15:42:00,
2013-03-26 09:57:00,53.5,13.0,30.16,NW,316,4.0,6.0,20,0.00,,,0.00,554,weatherlink.com 1.10,2013-03-26 15:57:00,
2013-03-26 10:12:00,55.2,13.0,30.16,NW,316,5.0,7.0,19,0.00,,,0.00,606,weatherlink.com 1.10,2013-03-26 16:12:00,
2013-03-26 10:27:00,55.6,14.0,30.15,NW,315,1.0,6.0,19,0.00,,,0.00,570,weatherlink.com 1.10,2013-03-26 16:27:00,
2013-03-26 10:42:00,57.3,14.0,30.15,NNE,14,2.0,10.0,18,0.00,,,0.00,677,weatherlink.com 1.10,2013-03-26 16:42:00,
2013-03-26 10:57:00,58.5,15.0,30.15,SE,138,9.0,13.0,18,0.00,,,0.00,698,weatherlink.com 1.10,2013-03-26 16:57:00,
2013-03-26 11:12:00,58.9,14.0,30.15,SE,143,2.0,11.0,17,0.00,,,0.00,726,weatherlink.com 1.10,2013-03-26 17:12:00,
2013-03-26 11:27:00,58.4,14.0,30.14,SSE,156,10.0,12.0,17,0.00,,,0.00,649,weatherlink.com 1.10,2013-03-26 17:27:00,
2013-03-26 11:42:00,58.7,14.0,30.13,SSE,153,10.0,14.0,17,0.00,,,0.00,613,weatherlink.com 1.10,2013-03-26 17:42:00,
2013-03-26 11:57:00,58.8,14.0,30.13,South,170,8.0,15.0,17,0.00,,,0.00,738,weatherlink.com 1.10,2013-03-26 17:57:00,
2013-03-26 12:12:00,58.9,14.0,30.13,SE,142,15.0,17.0,17,0.00,,,0.00,791,weatherlink.com 1.10,2013-03-26 18:12:00,
2013-03-26 12:27:00,59.7,13.0,30.12,SSE,165,10.0,17.0,16,0.00,,,0.00,707,weatherlink.com 1.10,2013-03-26 18:27:00,
2013-03-26 12:42:00,60.1,14.0,30.11,SSE,154,13.0,16.0,16,0.00,,,0.00,751,weatherlink.com 1.10,2013-03-26 18:42:00,
2013-03-26 12:57:00,60.8,14.0,30.11,SSE,158,13.0,18.0,16,0.00,,,0.00,677,weatherlink.com 1.10,2013-03-26 18:57:00,
2013-03-26 13:12:00,61.0,14.0,30.10,SSE,157,13.0,18.0,16,0.00,,,0.00,624,weatherlink.com 1.10,2013-03-26 19:12:00,
2013-03-26 13:27:00,61.2,14.0,30.09,SSE,159,15.0,17.0,16,0.00,,,0.00,701,weatherlink.com 1.10,2013-03-26 19:27:00,
2013-03-26 13:42:00,61.8,13.0,30.08,South,173,14.0,19.0,15,0.00,,,0.00,728,weatherlink.com 1.10,2013-03-26 19:42:00,
2013-03-26 13:57:00,62.3,14.0,30.07,SSE,150,8.0,16.0,15,0.00,,,0.00,564,weatherlink.com 1.10,2013-03-26 19:57:00,
2013-03-26 14:12:00,63.4,13.0,30.06,SE,134,7.0,18.0,14,0.00,,,0.00,594,weatherlink.com 1.10,2013-03-26 20:12:00,
2013-03-26 14:27:00,63.3,13.0,30.05,SE,132,14.0,15.0,14,0.00,,,0.00,508,weatherlink.com 1.10,2013-03-26 20:27:00,
2013-03-26 14:42:00,63.2,13.0,30.05,SE,128,15.0,19.0,14,0.00,,,0.00,587,weatherlink.com 1.10,2013-03-26 20:42:00,
2013-03-26 14:57:00,64.6,12.0,30.04,SE,128,6.0,19.0,13,0.00,,,0.00,578,weatherlink.com 1.10,2013-03-26 20:57:00,
2013-03-26 15:12:00,64.5,12.0,30.02,SSE,155,14.0,19.0,13,0.00,,,0.00,598,weatherlink.com 1.10,2013-03-26 21:12:00,
2013-03-26 15:28:00,65.0,13.0,30.02,SE,134,9.0,18.0,13,0.00,,,0.00,768,weatherlink.com 1.10,2013-03-26 21:28:00,
2013-03-26 15:43:00,65.6,13.0,30.01,SSE,150,7.0,20.0,13,0.00,,,0.00,610,weatherlink.com 1.10,2013-03-26 21:43:00,
2013-03-26 15:58:00,66.2,14.0,30.00,SSE,161,18.0,18.0,13,0.00,,,0.00,661,weatherlink.com 1.10,2013-03-26 21:58:00,
2013-03-26 16:13:00,66.7,14.0,29.99,SSE,163,14.0,19.0,13,0.00,,,0.00,622,weatherlink.com 1.10,2013-03-26 22:13:00,
2013-03-26 16:28:00,66.8,14.0,29.98,SE,135,10.0,17.0,13,0.00,,,0.00,582,weatherlink.com 1.10,2013-03-26 22:28:00,
2013-03-26 16:43:00,67.4,13.0,29.98,SSE,166,5.0,18.0,12,0.00,,,0.00,566,weatherlink.com 1.10,2013-03-26 22:43:00,
2013-03-26 16:58:00,66.1,14.0,29.97,SE,144,10.0,18.0,13,0.00,,,0.00,308,weatherlink.com 1.10,2013-03-26 22:58:00,
2013-03-26 17:14:00,66.8,14.0,29.97,SE,140,16.0,20.0,13,0.00,,,0.00,260,weatherlink.com 1.10,2013-03-26 23:14:00,
2013-03-26 17:28:00,65.8,15.0,29.97,SE,144,10.0,13.0,14,0.00,,,0.00,149,weatherlink.com 1.10,2013-03-26 23:28:00,
2013-03-26 17:43:00,65.8,15.0,29.97,SSE,164,6.0,15.0,14,0.00,,,0.00,264,weatherlink.com 1.10,2013-03-26 23:43:00,
2013-03-26 17:58:00,67.4,15.0,29.96,SE,131,11.0,15.0,13,0.00,,,0.00,197,weatherlink.com 1.10,2013-03-26 23:58:00,
2013-03-26 18:13:00,66.2,15.0,29.96,South,172,10.0,17.0,14,0.00,,,0.00,211,weatherlink.com 1.10,2013-03-27 00:13:00,
2013-03-26 18:28:00,66.5,14.0,29.96,SSE,165,10.0,14.0,13,0.00,,,0.00,67,weatherlink.com 1.10,2013-03-27 00:28:00,
2013-03-26 18:43:00,65.5,15.0,29.95,SSE,157,7.0,13.0,14,0.00,,,0.00,35,weatherlink.com 1.10,2013-03-27 00:43:00,
2013-03-26 18:58:00,65.1,15.0,29.95,SSE,150,6.0,11.0,14,0.00,,,0.00,30,weatherlink.com 1.10,2013-03-27 00:58:00,
2013-03-26 19:13:00,64.9,14.0,29.95,SE,139,8.0,9.0,14,0.00,,,0.00,14,weatherlink.com 1.10,2013-03-27 01:13:00,
2013-03-26 19:28:00,64.3,14.0,29.95,SE,130,10.0,10.0,14,0.00,,,0.00,0,weatherlink.com 1.10,2013-03-27 01:28:00,
2013-03-26 19:43:00,63.7,15.0,29.95,ESE,117,5.0,12.0,15,0.00,,,0.00,0,weatherlink.com 1.10,2013-03-27 01:43:00,
2013-03-26 19:58:00,63.4,15.0,29.95,ESE,115,7.0,9.0,15,0.00,,,0.00,0,weatherlink.com 1.10,2013-03-27 01:58:00,
2013-03-26 20:13:00,62.6,14.0,29.95,ESE,116,7.0,8.0,15,0.00,,,0.00,0,weatherlink.com 1.10,2013-03-27 02:13:00,
2013-03-26 20:28:00,62.4,14.0,29.95,ESE,117,7.0,9.0,15,0.00,,,0.00,0,weatherlink.com 1.10,2013-03-27 02:28:00,
2013-03-26 20:43:00,62.7,14.0,29.95,ESE,109,5.0,10.0,15,0.00,,,0.00,0,weatherlink.com 1.10,2013-03-27 02:43:00,
2013-03-26 20:58:00,62.9,14.0,29.96,ESE,116,7.0,11.0,15,0.00,,,0.00,0,weatherlink.com 1.10,2013-03-27 02:58:00,
2013-03-26 21:13:00,63.4,15.0,29.95,ESE,112,8.0,13.0,15,0.00,,,0.00,0,weatherlink.com 1.10,2013-03-27 03:13:00,
2013-03-26 21:28:00,63.3,15.0,29.95,ESE,104,8.0,13.0,15,0.00,,,0.00,0,weatherlink.com 1.10,2013-03-27 03:28:00,
2013-03-26 21:43:00,63.4,15.0,29.96,ESE,107,3.0,12.0,15,0.00,,,0.00,0,weatherlink.com 1.10,2013-03-27 03:43:00,
2013-03-26 21:58:00,62.7,14.0,29.95,ESE,115,9.0,15.0,15,0.00,,,0.00,0,weatherlink.com 1.10,2013-03-27 03:58:00,
2013-03-26 22:13:00,62.9,14.0,29.95,ESE,117,10.0,18.0,15,0.00,,,0.00,0,weatherlink.com 1.10,2013-03-27 04:13:00,
2013-03-26 22:28:00,62.9,14.0,29.95,SE,138,14.0,16.0,15,0.00,,,0.00,0,weatherlink.com 1.10,2013-03-27 04:28:00,
2013-03-26 22:43:00,62.8,14.0,29.95,ESE,118,14.0,18.0,15,0.00,,,0.00,0,weatherlink.com 1.10,2013-03-27 04:43:00,
2013-03-26 22:58:00,62.3,14.0,29.96,ESE,118,12.0,18.0,15,0.00,,,0.00,0,weatherlink.com 1.10,2013-03-27 04:58:00,
2013-03-26 23:13:00,61.9,15.0,29.96,East,100,6.0,18.0,16,0.00,,,0.00,0,weatherlink.com 1.10,2013-03-27 05:13:00,
2013-03-26 23:28:00,61.1,16.0,29.96,ESE,118,5.0,12.0,17,0.00,,,0.00,0,weatherlink.com 1.10,2013-03-27 05:28:00,
2013-03-26 23:43:00,61.9,15.0,29.96,ESE,113,8.0,17.0,16,0.00,,,0.00,0,weatherlink.com 1.10,2013-03-27 05:43:00,
2013-03-26 23:58:00,61.7,15.0,29.96,ESE,107,5.0,16.0,16,0.00,,,0.00,0,weatherlink.com 1.10,2013-03-27 05:58:00,